Regional Weather Roundup
Issued by NWS

Home | Current Version | Previous Version | Text Only | Print | Product List | Glossary Off
Versions: 1 2 3 4 5 6 7 8 9 10 11 12 13 14 15 16 17 18 19 20 21 22 23 24 25 26 27 28 29 30 31 32 33 34 35 36 37 38 39 40 41 42 43 44 45 46 47 48 49 50

000
ASUS43 KOAX 240402
RWRNE

WEATHER ROUNDUP FOR NEBRASKA
NATIONAL WEATHER SERVICE OMAHA NE
1100 PM CDT MON APR 23 2018

NOTES: SATELLITE DATA IS BEING USED TO AUGMENT CLOUD COVER ABOVE
       12000 FEET.
       "FAIR" INDICATES FEW OR NO CLOUDS BELOW 12,000 FEET WITH NO
       SIGNIFICANT WEATHER AND/OR OBSTRUCTIONS TO VISIBILITY.


NEZ001>004-019>022-054>056-240500-
NEBRASKA PANHANDLE

CITY           SKY/WX    TMP DP  RH WIND       PRES   REMARKS
SCOTTSBLUFF    CLOUDY    41  41 100 NW22G30   30.26R
ALLIANCE       LGT RAIN  41  39  93 NW14      30.21R
CHADRON        MOCLDY    38  34  85 W20G30    30.23R WCI  28
GORDON         LGT RAIN  41  38  89 NW9       30.15F
KIMBALL        CLOUDY    38  37  92 N23G33    30.23R WCI  28
SIDNEY         LGT RAIN  43  41  93 N18G29    30.19R
$$

NEZ057>060-069>072-079>082-240500-
SOUTHWEST NEBRASKA

CITY           SKY/WX    TMP DP  RH WIND       PRES   REMARKS
NORTH PLATTE   CLEAR     47  39  74 SE3       30.10R
IMPERIAL       CLOUDY    51  42  71 E5        30.09R
LEXINGTON      CLEAR     51  39  63 CALM      30.09R
MCCOOK         CLEAR     52  40  63 SE8       30.07R
OGALLALA       CLOUDY    55  42  62 E3        30.11R
$$

NEZ005>010-023>029-035>040-094-240500-
NORTH CENTRAL NEBRASKA

CITY           SKY/WX    TMP DP  RH WIND       PRES   REMARKS
VALENTINE      MOCLDY    60  40  47 SE13      30.07S
AINSWORTH      CLOUDY    55  42  60 SE8       30.10S
BROKEN BOW     CLOUDY    48  41  76 CALM      30.11R
O`NEILL        CLOUDY    59  39  46 SE5       30.11S
ORD            CLEAR     44  36  73 CALM      30.10R
THEDFORD       PTCLDY    50  41  71 SE6       30.11R
$$

NEZ041-046>049-061>064-073>077-083>087-240500-
SOUTH CENTRAL NEBRASKA

CITY           SKY/WX    TMP DP  RH WIND       PRES   REMARKS
GRAND ISLAND   CLOUDY    57  41  55 SE6       30.10R
AURORA         CLOUDY    54  32  43 SE5       30.09S
HASTINGS       PTCLDY    51  41  68 E5        30.09S
HEBRON         CLOUDY    49  39  68 CALM      30.08S
HOLDREGE       CLEAR     49  39  69 SE3       30.09R
KEARNEY        PTCLDY    54  41  61 CALM      30.11R
YORK             N/A     54  30  40 CALM      30.10R
$$

NEZ011>018-030>034-042>045-240500-
NORTHEAST NEBRASKA

CITY           SKY/WX    TMP DP  RH WIND       PRES   REMARKS
NORFOLK        MOCLDY    50  35  56 NE3       30.10R
ALBION         CLOUDY    57  42  57 CALM      30.10S
BLAIR          CLEAR     58  31  35 NE7       30.09R
COLUMBUS       PTCLDY    52  34  50 CALM      30.10R
FREMONT        CLOUDY    54  32  42 CALM      30.10R
TEKAMAH        PTCLDY    48  34  58 N8        30.10R
WAYNE          CLEAR     54  39  56 E7        30.12R
$$

NEZ050>053-065>068-078-088>093-240500-
SOUTHEAST NEBRASKA

CITY           SKY/WX    TMP DP  RH WIND       PRES   REMARKS
LINCOLN        CLOUDY    48  32  53 N5        30.10R
OMAHA EPPLEY   CLEAR     56  31  38 CALM      30.08R
BEATRICE       CLOUDY    54  32  43 CALM      30.08S
FALLS CITY     CLEAR     56  30  37 NE5       30.06S
NEBRASKA CITY  CLEAR     60  31  33 CALM      30.08S
PLATTSMOUTH    CLEAR     60  29  30 E7        30.08S
$$

NEZ044-045-051>053-067-240500-
OMAHA AREA

CITY           SKY/WX    TMP DP  RH WIND       PRES   REMARKS
OMAHA EPPLEY   CLEAR     56  31  38 CALM      30.08R
BLAIR          CLEAR     58  31  35 NE7       30.09R
FREMONT        CLOUDY    54  32  42 CALM      30.10R
MILLARD        CLEAR     56  40  56 CALM      30.08S
PLATTSMOUTH    CLEAR     60  29  30 E7        30.08S
WAHOO          FAIR      54  26  34 N5        30.09R
$$




USA.gov is the U.S. government's official web portal to all federal, state and local government web resources and services.